When you browse on this site, cookies collect data to enhance your experience and personalize the content and advertising you see.
Visit our Privacy Policy to learn more. By continuing to use the site, you agree to this use of cookies and data.
  • In United Kingdom
  • List of Countries
  • For 7 days
  • Water Temperature
  • Satellite Maps
  • Weather Map
  • Weather Widgets
  • user-avatar
    Login

    Hourly Weather Oshlamuchash

    Today, 22 February, Friday

    Time Temperature Precipitation Wind Pressure Humidity
    00:00 -2°C° 0.1 mm 3 mps 737 mmHg 95%
    01:00 -2°C° 0.1 mm 3 mps 737 mmHg 95%
    02:00 -2°C° 0.1 mm 3 mps 737 mmHg 95%
    03:00 -2°C° 0.1 mm 3 mps 737 mmHg 95%
    04:00 -4°C° 0.3 mm 3 mps 737 mmHg 95%
    05:00 -4°C° 0.3 mm 3 mps 737 mmHg 95%
    06:00 -4°C° 0.3 mm 3 mps 737 mmHg 94%
    07:00 -4°C° 0.1 mm 4 mps 737 mmHg 94%
    08:00 -4°C° 0.1 mm 4 mps 738 mmHg 94%
    09:00 -4°C° 0.1 mm 4 mps 738 mmHg 93%
    10:00 -3°C° 0.2 mm 4 mps 739 mmHg 94%
    11:00 -3°C° 0.2 mm 4 mps 739 mmHg 95%
    12:00 -2°C° 0.2 mm 4 mps 740 mmHg 96%
    13:00 -2°C° 0.4 mm 4 mps 740 mmHg 95%
    14:00 -4°C° 0.4 mm 5 mps 741 mmHg 94%
    15:00 -4°C° 0.4 mm 5 mps 741 mmHg 93%
    16:00 -5°C° 0.4 mm 6 mps 742 mmHg 91%
    17:00 -7°C° 0.4 mm 7 mps 743 mmHg 90%
    18:00 -9°C° 0.4 mm 7 mps 743 mmHg 88%
    19:00 -11°C° 0 mm 7 mps 744 mmHg 89%
    20:00 -12°C° 0 mm 7 mps 745 mmHg 89%
    21:00 -13°C° 0 mm 7 mps 746 mmHg 89%
    22:00 -14°C° 0.1 mm 7 mps 746 mmHg 89%
    23:00 -14°C° 0.1 mm 7 mps 747 mmHg 89%

    Tomorrow, 23 February, Saturday

    Time Temperature Precipitation Wind Pressure Humidity
    00:00 -14°C° 0.1 mm 7 mps 748 mmHg 88%
    01:00 -15°C° 0.1 mm 6 mps 749 mmHg 89%
    02:00 -15°C° 0.1 mm 6 mps 750 mmHg 89%
    03:00 -16°C° 0.1 mm 6 mps 750 mmHg 90%
    04:00 -15°C° 0 mm 5 mps 751 mmHg 90%
    05:00 -17°C° 0 mm 5 mps 752 mmHg 90%
    06:00 -18°C° 0 mm 5 mps 752 mmHg 90%
    07:00 -18°C° 0 mm 5 mps 753 mmHg 91%
    08:00 -18°C° 0 mm 5 mps 754 mmHg 91%
    09:00 -18°C° 0 mm 4 mps 754 mmHg 91%
    10:00 -17°C° 0 mm 4 mps 755 mmHg 90%
    11:00 -17°C° 0 mm 4 mps 755 mmHg 89%
    12:00 -15°C° 0 mm 3 mps 755 mmHg 88%
    13:00 -15°C° 0 mm 3 mps 755 mmHg 86%
    14:00 -15°C° 0 mm 3 mps 756 mmHg 85%
    15:00 -14°C° 0 mm 3 mps 756 mmHg 84%
    16:00 -16°C° 0 mm 3 mps 756 mmHg 86%
    17:00 -16°C° 0 mm 2 mps 756 mmHg 88%
    18:00 -17°C° 0 mm 2 mps 756 mmHg 90%
    19:00 -18°C° 0 mm 2 mps 755 mmHg 90%
    20:00 -18°C° 0 mm 2 mps 755 mmHg 90%
    21:00 -18°C° 0 mm 2 mps 755 mmHg 89%
    22:00 -18°C° 0 mm 2 mps 755 mmHg 90%
    23:00 -17°C° 0 mm 2 mps 755 mmHg 90%

    Day after tomorrow, 24 February, Sunday

    Time Temperature Precipitation Wind Pressure Humidity
    00:00 -17°C° 0 mm 2 mps 754 mmHg 90%
    01:00 -17°C° 0 mm 2 mps 754 mmHg 91%
    02:00 -17°C° 0 mm 3 mps 754 mmHg 91%
    03:00 -17°C° 0 mm 3 mps 753 mmHg 92%
    04:00 -17°C° 0 mm 3 mps 753 mmHg 93%
    05:00 -16°C° 0 mm 3 mps 753 mmHg 94%
    06:00 -16°C° 0 mm 3 mps 752 mmHg 94%
    07:00 -15°C° 0.1 mm 3 mps 752 mmHg 94%
    08:00 -14°C° 0.1 mm 3 mps 752 mmHg 94%
    09:00 -13°C° 0.1 mm 3 mps 752 mmHg 94%
    10:00 -12°C° 0 mm 3 mps 752 mmHg 92%
    11:00 -9°C° 0 mm 3 mps 751 mmHg 91%
    12:00 -9°C° 0 mm 4 mps 751 mmHg 90%
    13:00 -8°C° 0.1 mm 3 mps 751 mmHg 90%
    14:00 -7°C° 0.1 mm 3 mps 751 mmHg 89%
    15:00 -6°C° 0.1 mm 3 mps 751 mmHg 89%
    16:00 -6°C° 0.1 mm 3 mps 751 mmHg 91%
    17:00 -6°C° 0.1 mm 3 mps 751 mmHg 92%
    18:00 -7°C° 0.1 mm 3 mps 750 mmHg 94%
    19:00 -7°C° 0 mm 3 mps 750 mmHg 95%
    20:00 -7°C° 0 mm 3 mps 750 mmHg 95%
    21:00 -7°C° 0 mm 3 mps 750 mmHg 96%
    22:00 -7°C° 0 mm 3 mps 749 mmHg 96%
    23:00 -8°C° 0 mm 3 mps 749 mmHg 97%

    25 February, Monday

    Time Temperature Precipitation Wind Pressure Humidity
    00:00 -8°C° 0 mm 3 mps 748 mmHg 97%
    01:00 -7°C° 0.1 mm 3 mps 748 mmHg 97%
    02:00 -6°C° 0.1 mm 3 mps 748 mmHg 97%
    03:00 -6°C° 0.1 mm 3 mps 747 mmHg 96%
    04:00 -6°C° 0.1 mm 3 mps 747 mmHg 96%
    05:00 -6°C° 0.1 mm 3 mps 746 mmHg 97%
    06:00 -6°C° 0.1 mm 3 mps 745 mmHg 97%
    07:00 -5°C° 0.1 mm 3 mps 745 mmHg 97%
    08:00 -5°C° 0.1 mm 3 mps 744 mmHg 97%
    09:00 -4°C° 0.1 mm 3 mps 744 mmHg 97%
    10:00 -4°C° 0.1 mm 3 mps 743 mmHg 96%
    11:00 -2°C° 0.1 mm 3 mps 743 mmHg 96%
    12:00 -1°C° 0.1 mm 3 mps 742 mmHg 96%
    13:00 -1°C° 0.1 mm 3 mps 742 mmHg 97%
    14:00 -1°C° 0.1 mm 3 mps 741 mmHg 97%
    15:00 -1°C° 0.1 mm 3 mps 741 mmHg 98%
    16:00 -1°C° 0.1 mm 3 mps 740 mmHg 98%
    17:00 -1°C° 0.1 mm 2 mps 740 mmHg 97%
    18:00 -1°C° 0.1 mm 2 mps 740 mmHg 97%
    19:00 -1°C° 0.1 mm 2 mps 739 mmHg 97%
    20:00 -1°C° 0.1 mm 2 mps 739 mmHg 97%
    21:00 -2°C° 0.1 mm 2 mps 738 mmHg 98%
    22:00 -2°C° 0.1 mm 2 mps 737 mmHg 98%
    23:00 -1°C° 0.1 mm 2 mps 737 mmHg 98%

    26 February, Tuesday

    Time Temperature Precipitation Wind Pressure Humidity
    00:00 -1°C° 0.1 mm 2 mps 736 mmHg 98%
    01:00 -1°C° 0.1 mm 2 mps 736 mmHg 98%
    02:00 -2°C° 0.1 mm 2 mps 736 mmHg 98%
    03:00 -2°C° 0.1 mm 2 mps 736 mmHg 98%
    04:00 -2°C° 0.2 mm 2 mps 735 mmHg 97%
    05:00 -2°C° 0.2 mm 2 mps 735 mmHg 97%
    06:00 -2°C° 0.2 mm 2 mps 735 mmHg 96%
    07:00 -2°C° 0.2 mm 2 mps 735 mmHg 95%
    08:00 -2°C° 0.2 mm 3 mps 735 mmHg 95%
    09:00 -4°C° 0.2 mm 3 mps 735 mmHg 94%
    10:00 -2°C° 0 mm 3 mps 735 mmHg 94%
    11:00 -2°C° 0 mm 3 mps 735 mmHg 94%
    12:00 -2°C° 0 mm 2 mps 735 mmHg 94%
    13:00 -2°C° 0.1 mm 2 mps 735 mmHg 93%
    14:00 -2°C° 0.1 mm 2 mps 735 mmHg 93%
    15:00 -1°C° 0.1 mm 2 mps 735 mmHg 93%
    16:00 -2°C° 0.1 mm 2 mps 735 mmHg 93%
    17:00 -3°C° 0.1 mm 2 mps 735 mmHg 94%
    18:00 -3°C° 0.1 mm 2 mps 735 mmHg 95%
    19:00 -4°C° 0 mm 2 mps 736 mmHg 95%
    20:00 -4°C° 0 mm 2 mps 736 mmHg 96%
    21:00 -4°C° 0 mm 2 mps 736 mmHg 96%
    22:00 -2°C° 0 mm 1 mps 736 mmHg 96%
    23:00 -2°C° 0 mm 1 mps 736 mmHg 96%

    27 February, Wednesday

    Time Temperature Precipitation Wind Pressure Humidity
    00:00 -2°C° 0 mm 1 mps 737 mmHg 97%
    01:00 -2°C° 0 mm 1 mps 737 mmHg 97%
    02:00 -2°C° 0 mm 1 mps 737 mmHg 97%
    03:00 -2°C° 0 mm 1 mps 738 mmHg 97%
    04:00 -4°C° 0 mm 2 mps 738 mmHg 97%
    05:00 -4°C° 0 mm 2 mps 738 mmHg 97%
    06:00 -4°C° 0 mm 2 mps 739 mmHg 96%
    07:00 -4°C° 0 mm 2 mps 739 mmHg 96%
    08:00 -4°C° 0 mm 2 mps 739 mmHg 96%
    09:00 -4°C° 0 mm 2 mps 739 mmHg 96%
    10:00 -4°C° 0 mm 2 mps 740 mmHg 96%
    11:00 -1°C° 0 mm 1 mps 740 mmHg 95%
    12:00 -1°C° 0 mm 1 mps 740 mmHg 95%
    13:00 -1°C° 0 mm 1 mps 740 mmHg 94%
    14:00 -1°C° 0 mm 1 mps 740 mmHg 93%
    15:00 -3°C° 0 mm 2 mps 740 mmHg 92%
    16:00 -2°C° 0 mm 1 mps 739 mmHg 93%
    17:00 -2°C° 0 mm 1 mps 739 mmHg 93%
    18:00 -3°C° 0 mm 1 mps 739 mmHg 94%
    19:00 -3°C° 0 mm 1 mps 739 mmHg 94%
    20:00 -3°C° 0 mm 1 mps 739 mmHg 95%
    21:00 -4°C° 0 mm 1 mps 738 mmHg 95%
    22:00 -5°C° 0 mm 2 mps 738 mmHg 96%
    23:00 -5°C° 0 mm 2 mps 738 mmHg 96%
    Show more